N1VL Weather Reports


Display with metric or nautical units.
time (UTC)temp
F
wind
direction
speed
MPH
gust
MPH
rain 1hr
in
rain 24hr
in
rain mn
in
humidity
%
barometer
mb
20260507192703 73 58 6.0 11.0 0.00 0.00 0.00 25 1019.0
20260507191803 71 85 6.0 12.0 0.00 0.00 0.00 25 1019.1
20260507190903 70 88 7.0 12.0 0.00 0.00 0.00 26 1019.4
20260507190004 70 85 7.0 14.0 0.00 0.00 0.00 26 1019.5
20260507185424 69 98 7.0 14.0 0.00 0.00 0.00 28 1019.6
20260507184503 69 103 6.0 14.0 0.00 0.00 0.00 26 1019.7
20260507183603 69 62 8.0 13.0 0.00 0.00 0.00 27 1019.8
20260507182724 68 88 5.0 9.0 0.00 0.00 0.00 29 1019.9
20260507181803 66 91 5.0 10.0 0.00 0.00 0.00 29 1020.1
20260507180903 65 111 5.0 9.0 0.00 0.00 0.00 29 1020.2
20260507180003 65 123 5.0 8.0 0.00 0.00 0.00 31 1020.3
20260507175403 65 121 5.0 10.0 0.00 0.00 0.00 32 1020.4
20260507174503 65 134 5.0 10.0 0.00 0.00 0.00 36 1020.4
20260507173624 64 132 5.0 9.0 0.00 0.00 0.00 36 1020.6
20260507172724 64 121 5.0 9.0 0.00 0.00 0.00 37 1020.7
20260507171824 63 120 4.0 8.0 0.00 0.00 0.00 40 1020.8
20260507170903 61 118 4.0 7.0 0.00 0.00 0.00 41 1020.9
20260507170003 59 119 4.0 7.0 0.00 0.00 0.00 41 1020.9
20260507165403 59 120 4.0 7.0 0.00 0.00 0.00 42 1021.0
20260507164503 58 109 4.0 8.0 0.00 0.00 0.00 40 1021.2
20260507163603 58 104 5.0 9.0 0.00 0.00 0.00 40 1021.3
20260507162703 57 119 5.0 9.0 0.00 0.00 0.00 41 1021.3
20260507161803 57 106 5.0 11.0 0.00 0.00 0.00 43 1021.5
20260507160903 56 96 6.0 11.0 0.00 0.00 0.00 44 1021.5
20260507160003 56 106 6.0 11.0 0.00 0.00 0.00 42 1021.6
20260507155403 56 104 5.0 11.0 0.00 0.00 0.00 43 1021.6
20260507154503 55 102 6.0 10.0 0.00 0.00 0.00 47 1021.6
20260507153603 55 97 6.0 12.0 0.00 0.00 0.00 50 1021.8
20260507152703 54 104 6.0 12.0 0.00 0.00 0.00 50 1021.9
20260507151803 54 109 6.0 11.0 0.00 0.00 0.00 48 1022.0
20260507150903 54 103 7.0 12.0 0.00 0.00 0.00 47 1022.0
20260507150003 53 104 7.0 12.0 0.00 0.00 0.00 47 1022.0
20260507145403 53 106 7.0 12.0 0.00 0.00 0.00 49 1022.0
20260507144503 54 102 7.0 12.0 0.00 0.00 0.00 53 1022.0
20260507143603 54 96 7.0 11.0 0.00 0.00 0.00 52 1022.0
20260507142703 53 101 6.0 11.0 0.00 0.00 0.00 51 1022.1
20260507141803 52 87 6.0 10.0 0.00 0.00 0.00 51 1022.0
20260507140903 51 79 5.0 9.0 0.00 0.00 0.00 52 1022.0
20260507140003 49 84 4.0 7.0 0.00 0.00 0.00 54 1022.0
20260507135403 48 119 3.0 7.0 0.00 0.00 0.00 56 1022.0
20260507134503 48 129 5.0 7.0 0.00 0.00 0.00 56 1021.9
20260507133603 47 118 4.0 5.0 0.00 0.00 0.00 56 1021.9
20260507132703 46 90 3.0 5.0 0.00 0.00 0.00 56 1021.9
20260507131803 45 90 3.0 6.0 0.00 0.00 0.00 56 1021.9
20260507130903 44 94 4.0 6.0 0.00 0.00 0.00 55 1021.8
20260507130003 43 96 2.0 5.0 0.00 0.00 0.00 55 1021.8
20260507125403 43 96 2.0 4.0 0.00 0.00 0.00 55 1021.8
20260507124524 42 96 2.0 4.0 0.00 0.00 0.00 56 1021.8
20260507123603 42 96 2.0 7.0 0.00 0.00 0.00 56 1021.7
20260507122705 42 73 3.0 7.0 0.00 0.00 0.00 56 1021.6
20260507121803 43 72 4.0 6.0 0.00 0.00 0.00 56 1021.4
20260507120903 43 95 3.0 5.0 0.00 0.00 0.00 56 1021.4
20260507120024 43 102 3.0 5.0 0.00 0.00 0.00 56 1021.4
20260507115403 43 102 2.0 5.0 0.00 0.00 0.00 57 1021.4
20260507114503 43 102 3.0 5.0 0.00 0.00 0.00 57 1021.5
20260507113624 43 101 4.0 5.0 0.00 0.00 0.00 58 1021.5
20260507112703 43 83 3.0 5.0 0.00 0.00 0.00 58 1021.5
20260507111803 43 78 3.0 5.0 0.00 0.00 0.00 58 1021.4
20260507110903 44 77 3.0 5.0 0.00 0.00 0.00 58 1021.4
20260507110024 44 78 4.0 5.0 0.00 0.00 0.00 58 1021.4
20260507105403 44 78 3.0 5.0 0.00 0.00 0.00 58 1021.5
20260507104503 43 78 4.0 5.0 0.00 0.00 0.00 58 1021.6
20260507103603 43 78 2.0 5.0 0.00 0.00 0.00 58 1021.6
20260507102703 44 78 2.0 4.0 0.00 0.00 0.00 58 1021.6
20260507101803 43 78 3.0 5.0 0.00 0.00 0.00 58 1021.8
20260507100903 43 78 3.0 5.0 0.00 0.00 0.00 58 1021.9
20260507100003 43 89 4.0 6.0 0.00 0.00 0.00 58 1021.9
20260507095403 43 96 4.0 5.0 0.00 0.00 0.00 58 1022.0
20260507094503 43 96 3.0 4.0 0.00 0.00 0.00 58 1022.0
20260507093603 44 96 3.0 5.0 0.00 0.00 0.00 58 1022.1
20260507092724 44 96 3.0 5.0 0.00 0.01 0.00 58 1022.2
20260507091803 44 96 5.0 6.0 0.00 0.06 0.00 58 1022.1
20260507090903 44 107 5.0 6.0 0.00 0.08 0.00 58 1022.2
20260507090003 44 109 4.0 5.0 0.00 0.08 0.00 58 1022.3
20260507085403 44 109 4.0 5.0 0.00 0.09 0.00 58 1022.3
20260507084503 45 109 3.0 5.0 0.00 0.09 0.00 58 1022.3
20260507083603 45 109 3.0 5.0 0.00 0.09 0.00 58 1022.3
20260507082703 45 114 4.0 5.0 0.00 0.09 0.00 58 1022.3
20260507081824 45 115 3.0 4.0 0.00 0.09 0.00 58 1022.5
20260507080903 45 115 2.0 4.0 0.00 0.09 0.00 57 1022.6
20260507080003 45 115 2.0 4.0 0.00 0.09 0.00 56 1022.6
20260507075403 46 115 3.0 5.0 0.00 0.09 0.00 55 1022.6
20260507074503 46 115 4.0 5.0 0.00 0.09 0.00 54 1022.5
20260507073603 46 115 3.0 5.0 0.00 0.09 0.00 54 1022.7
20260507072703 47 116 3.0 5.0 0.00 0.09 0.00 53 1022.8
20260507071803 47 116 4.0 5.0 0.00 0.09 0.00 53 1022.8
20260507070924 47 117 4.0 5.0 0.00 0.09 0.00 53 1022.8
20260507070005 47 120 3.0 5.0 0.00 0.09 0.00 53 1022.8
20260507065403 47 120 3.0 5.0 0.00 0.09 0.00 53 1022.9
20260507064524 47 120 3.0 5.0 0.00 0.09 0.00 53 1022.8
20260507063603 47 120 4.0 6.0 0.00 0.09 0.00 52 1022.7
20260507062703 48 119 4.0 6.0 0.00 0.09 0.00 51 1022.7
20260507061803 48 89 4.0 6.0 0.00 0.09 0.00 49 1022.7
20260507060924 49 74 4.0 6.0 0.00 0.09 0.00 48 1022.6
20260507060024 49 71 5.0 6.0 0.00 0.09 0.00 47 1022.5
20260507055403 49 78 5.0 7.0 0.00 0.09 0.09 47 1022.5
20260507054503 49 97 4.0 7.0 0.00 0.09 0.09 47 1022.5
20260507053603 49 109 3.0 5.0 0.00 0.09 0.09 47 1022.5
20260507052703 50 109 3.0 8.0 0.00 0.09 0.09 47 1022.4
20260507051803 50 126 4.0 8.0 0.00 0.09 0.09 46 1022.3
20260507050903 50 97 5.0 8.0 0.00 0.09 0.09 45 1022.4
20260507050003 50 88 4.0 6.0 0.00 0.09 0.09 44 1022.4
20260507045403 51 75 3.0 6.0 0.00 0.09 0.09 43 1022.4
20260507044503 52 115 4.0 7.0 0.00 0.09 0.09 42 1022.4
20260507043624 53 86 4.0 7.0 0.00 0.09 0.09 40 1022.2
20260507042724 54 38 7.0 11.0 0.00 0.09 0.09 38 1022.0
20260507041803 54 33 7.0 11.0 0.00 0.09 0.09 38 1022.0
20260507040903 52 52 5.0 7.0 0.00 0.09 0.09 39 1022.1
20260507040003 52 100 4.0 8.0 0.00 0.09 0.09 40 1022.1
20260507035403 52 95 5.0 9.0 0.00 0.09 0.09 41 1022.2
20260507034503 51 330 4.0 9.0 0.00 0.09 0.09 43 1022.1
20260507033603 52 280 2.0 5.0 0.00 0.09 0.09 42 1021.9
20260507032724 53 237 3.0 4.0 0.00 0.09 0.09 38 1021.6
20260507031824 53 220 4.0 6.0 0.00 0.09 0.09 37 1021.5
20260507030903 54 216 5.0 6.0 0.00 0.09 0.09 36 1021.5
20260507030024 54 218 5.0 6.0 0.00 0.09 0.09 36 1021.5
20260507025403 55 223 3.0 6.0 0.00 0.09 0.09 35 1021.6
20260507024503 56 219 4.0 6.0 0.00 0.09 0.09 33 1021.4
20260507023624 57 208 5.0 6.0 0.00 0.09 0.09 32 1021.4
20260507022703 58 230 4.0 6.0 0.00 0.09 0.09 30 1021.3
20260507021803 59 269 4.0 7.0 0.00 0.09 0.09 29 1021.3
20260507020903 60 299 6.0 9.0 0.00 0.09 0.09 29 1021.3
20260507020003 61 291 6.0 11.0 0.00 0.09 0.09 29 1021.2
20260507015403 61 297 7.0 11.0 0.00 0.09 0.09 27 1021.3
20260507014503 61 287 8.0 14.0 0.00 0.09 0.09 28 1021.3
20260507013624 62 290 9.0 14.0 0.00 0.09 0.09 27 1021.3
20260507012703 63 300 9.0 13.0 0.00 0.09 0.09 27 1021.3
20260507011803 63 284 8.0 14.0 0.00 0.09 0.09 27 1021.3
20260507010903 63 287 9.0 16.0 0.00 0.09 0.09 27 1021.4
20260507010003 63 288 10.0 16.0 0.00 0.09 0.09 26 1021.4
20260507005424 63 298 11.0 18.0 0.00 0.09 0.09 27 1021.3
20260507004524 63 291 10.0 18.0 0.00 0.09 0.09 25 1021.3
20260507003603 64 301 12.0 20.0 0.00 0.09 0.09 26 1021.3
20260507002703 64 297 12.0 20.0 0.00 0.09 0.09 26 1021.3
20260507001803 64 294 11.0 16.0 0.00 0.09 0.09 26 1021.3
20260507000903 64 297 11.0 16.0 0.00 0.09 0.09 28 1021.3
20260507000003 63 285 12.0 22.0 0.00 0.09 0.09 27 1021.2
20260506235403 64 296 11.0 19.0 0.00 0.09 0.09 27 1021.1
20260506234503 63 289 11.0 19.0 0.00 0.09 0.09 28 1021.1
20260506233624 63 286 13.0 24.0 0.00 0.09 0.09 28 1021.1
20260506232724 63 267 12.0 24.0 0.00 0.09 0.09 27 1021.1
20260506231803 63 283 15.0 24.0 0.00 0.09 0.09 28 1021.1
20260506230903 63 272 13.0 38.0 0.00 0.09 0.09 29 1021.1
20260506230003 62 268 15.0 38.0 0.00 0.09 0.09 29 1021.0
20260506225424 62 278 17.0 38.0 0.00 0.09 0.09 29 1021.0
20260506224503 62 279 15.0 28.0 0.00 0.09 0.09 29 1021.1
20260506223603 62 271 16.0 27.0 0.00 0.09 0.09 29 1021.1
20260506222703 63 283 17.0 27.0 0.00 0.09 0.09 29 1021.2
20260506221803 62 264 15.0 28.0 0.00 0.09 0.09 29 1021.2
20260506220903 62 276 17.0 28.0 0.00 0.09 0.09 29 1021.3
20260506220003 62 275 15.0 27.0 0.00 0.09 0.09 29 1021.2
20260506215403 62 271 17.0 27.0 0.00 0.09 0.09 28 1021.4
20260506214503 62 280 18.0 27.0 0.00 0.09 0.09 30 1021.4
20260506213603 61 277 17.0 26.0 0.00 0.09 0.09 29 1021.3
20260506212703 62 275 17.0 29.0 0.00 0.09 0.09 30 1021.3
20260506211803 61 270 17.0 29.0 0.00 0.09 0.09 28 1021.5
20260506210903 60 267 18.0 30.0 0.00 0.09 0.09 28 1021.2
20260506210003 61 274 20.0 31.0 0.00 0.09 0.09 29 1021.2
20260506205403 61 275 22.0 31.0 0.00 0.09 0.09 30 1021.1
20260506204503 61 287 21.0 30.0 0.00 0.09 0.09 29 1021.2
20260506203624 61 283 21.0 31.0 0.00 0.09 0.09 29 1021.2
20260506202724 60 268 20.0 31.0 0.00 0.09 0.09 27 1021.3
20260506201824 60 276 19.0 31.0 0.00 0.09 0.09 28 1021.2
20260506200903 60 281 18.0 31.0 0.00 0.09 0.09 28 1021.2
20260506200003 59 272 21.0 31.0 0.00 0.09 0.09 28 1021.3
20260506195403 60 285 18.0 30.0 0.00 0.09 0.09 27 1021.4
20260506194524 60 288 17.0 27.0 0.00 0.09 0.09 30 1021.5
20260506193603 59 280 18.0 27.0 0.00 0.09 0.09 29 1021.4